CDT,Max TemperatureF,Mean TemperatureF,Min TemperatureF,Max Dew PointF,MeanDew PointF,Min DewpointF,Max Humidity, Mean Humidity, Min Humidity, Max Sea Level PressureIn, Mean Sea Level PressureIn, Min Sea Level PressureIn, Max VisibilityMiles, Mean VisibilityMiles, Min VisibilityMiles, Max Wind SpeedMPH, Mean Wind SpeedMPH, Max Gust SpeedMPH,PrecipitationIn, CloudCover, Events, WindDirDegrees
2012-10-1,74,63,51,55,49,45,86,61,35,30.06,29.99,29.89,10,10,10,30,13,38,T,1,,347
2012-10-2,77,60,43,49,43,39,89,59,29,30.07,29.95,29.81,10,10,10,15,7,18,0.00,0,,213
2012-10-3,86,66,46,54,50,45,93,61,29,29.81,29.76,29.68,10,10,10,23,10,28,0.00,0,,183
2012-10-4,67,57,46,54,36,29,67,50,32,30.26,30.14,29.79,10,10,7,36,16,45,0.00,3,,23
2012-10-5,54,49,43,37,34,29,76,60,44,30.28,30.19,30.13,10,10,10,22,10,28,0.00,5,,63
2012-10-6,43,41,39,37,33,30,85,74,62,30.34,30.29,30.24,10,10,6,14,7,20,T,8,,87
2012-10-7,53,45,37,34,32,30,85,65,44,30.33,30.24,30.11,10,10,10,18,9,24,0.00,6,,178
2012-10-8,70,53,35,39,33,28,75,51,26,30.12,29.96,29.82,10,10,10,23,11,29,0.00,0,,211
2012-10-9,72,56,40,40,35,24,86,52,18,30.15,29.89,29.73,10,10,10,25,12,31,0.00,0,,357
2012-10-10,68,51,34,45,37,31,89,61,32,30.26,30.13,30.00,10,10,10,20,9,25,0.00,0,,192
2012-10-11,90,69,48,49,46,42,86,55,23,30.02,29.93,29.82,10,10,10,30,14,38,0.00,0,,199
2012-10-12,63,55,46,54,40,32,86,69,51,30.20,30.05,29.87,10,10,10,21,10,25,0.01,6,,62
2012-10-13,74,65,56,62,49,30,100,60,20,29.92,29.79,29.64,10,10,3,37,14,48,0.20,2,Rain-Thunderstorm,248
2012-10-14,76,63,49,43,41,37,71,48,25,30.15,30.05,29.84,10,10,10,23,10,30,0.00,0,,311
2012-10-15,86,65,44,43,38,31,83,49,15,30.09,29.90,29.72,10,10,9,25,11,30,0.00,0,,211
2012-10-16,81,64,47,40,37,33,71,45,18,29.70,29.60,29.41,10,10,10,20,9,24,0.00,0,,186
2012-10-17,67,53,39,38,31,21,59,39,18,29.89,29.65,29.36,10,10,10,44,15,53,0.00,0,Rain,336
2012-10-18,65,50,35,27,24,19,70,45,20,30.08,30.01,29.91,10,10,10,22,8,26,0.00,0,,321
2012-10-19,79,57,34,35,26,13,64,40,16,30.04,29.91,29.75,10,10,10,16,7,21,0.00,0,,233
2012-10-20,84,61,37,36,34,30,79,47,15,29.75,29.68,29.62,10,10,10,13,6,17,0.00,0,,199
2012-10-21,90,65,40,35,30,22,79,44,8,29.65,29.60,29.55,10,10,10,18,7,29,0.00,0,,246
2012-10-22,74,60,46,49,43,35,83,59,35,29.92,29.77,29.67,10,10,10,15,6,17,0.00,2,,323
2012-10-23,92,72,52,37,32,24,74,42,9,29.70,29.64,29.57,10,10,10,28,15,35,0.00,0,,221
2012-10-24,73,62,50,48,40,33,60,47,34,29.75,29.63,29.50,10,10,10,31,12,39,0.00,0,,201
2012-10-25,52,42,32,47,32,24,83,63,42,30.32,30.03,29.59,10,10,10,33,18,45,0.00,4,,10
2012-10-26,47,38,29,28,26,24,78,62,45,30.51,30.41,30.30,10,10,10,17,8,22,0.00,5,,27
2012-10-27,58,41,23,24,21,18,88,56,23,30.38,30.23,30.09,10,10,10,22,8,29,0.00,0,,181
2012-10-28,65,45,25,25,21,19,75,47,18,30.21,30.13,30.04,10,10,10,24,10,32,0.00,0,,208
2012-10-29,72,52,31,33,28,24,78,50,22,30.15,30.07,30.00,10,10,10,17,8,21,0.00,0,,199
2012-10-30,80,60,40,35,31,29,70,43,16,30.02,29.97,29.91,10,10,10,20,8,25,0.00,0,,328
2012-10-31,81,61,40,39,33,29,70,43,15,30.04,29.99,29.91,10,10,10,15,7,18,0.00,0,,271